Escanaba, MI

2:43 PM EDT on June 28, 2017 (GMT -0400)
Delta County

Weather History for KESC - April, 2014

Change the Weather History Date:

Monday, April 14, 2014

  Actual Average Record
Temperature  
Mean Temperature 29 °F -  
Max Temperature 35 °F 45 °F 77 °F (2006)
Min Temperature 21 °F 31 °F 17 °F (1997)
Degree Days  
Heating Degree Days 36    
Moisture  
Dew Point 21 °F    
Average Humidity 76    
Maximum Humidity 93    
Minimum Humidity 59    
Precipitation  
Precipitation 0.00 in - - ()
Sea Level Pressure  
Sea Level Pressure 29.77 in    
Wind  
Wind Speed 13 mph (NNW)    
Max Wind Speed 23 mph    
Max Gust Speed 34 mph    
Visibility 6 miles    
Events      
Averages and records for this station are not official NWS values.
T = Trace of Precipitation, MM = Missing Value Source: NWS Daily Summary

Daily Weather History Graph

Daily Weather History Graph

Search for Another Location

Airport or City:

Trip Planner

Search our weather history database for the weather conditions in past years. The results will help you decide how hot, cold, wet, or windy it might be!

Date:

Astronomy

Apr. 14, 2014 Rise Set
Actual Time 7:04 AM EDT 8:33 PM EDT
Civil Twilight 6:33 AM EDT 9:04 PM EDT
Nautical Twilight 5:55 AM EDT 9:42 PM EDT
Astronomical Twilight 5:15 AM EDT 10:23 PM EDT
Moon 8:11 PM EDT (4/14) 6:38 AM EDT (4/14)
Length of Visible Light 14h 31m
Length of Day
13h 29m
Full, 100% of the Moon is Illuminated
Apr 14
Full
Apr 15
Full
Apr 22
Last Quarter
Apr 29
New
May 6
First Quarter

Hourly Weather History & Observations

Time (EDT) Temp. Windchill Dew Point Humidity Pressure Visibility Wind Dir Wind Speed Gust Speed Precip Events Conditions
12:15 AM 37.4 °F 31.4 °F 33.8 °F 87% 29.72 in 10.0 mi NNE 8.1 mph - N/A   Overcast
12:35 AM 35.6 °F 27.5 °F 32.0 °F 87% 29.71 in 10.0 mi North 11.5 mph - N/A   Overcast
12:55 AM 35.6 °F 28.6 °F 32.0 °F 87% 29.70 in 8.0 mi North 9.2 mph - N/A   Overcast
1:15 AM 35.6 °F 28.6 °F 32.0 °F 87% 29.68 in 10.0 mi North 9.2 mph 17.3 mph N/A   Overcast
1:35 AM 35.6 °F 28.0 °F 32.0 °F 87% 29.66 in 7.0 mi North 10.4 mph 19.6 mph N/A   Overcast
1:55 AM 35.6 °F 27.5 °F 32.0 °F 87% 29.64 in 5.0 mi North 11.5 mph 21.9 mph N/A   Overcast
2:15 AM 35.6 °F 27.5 °F 32.0 °F 87% 29.63 in 7.0 mi North 11.5 mph 23.0 mph N/A   Overcast
2:35 AM 35.6 °F 25.5 °F 32.0 °F 87% 29.60 in 9.0 mi North 17.3 mph 26.5 mph N/A   Overcast
2:55 AM 35.6 °F 25.9 °F 32.0 °F 87% 29.59 in 9.0 mi North 16.1 mph 26.5 mph N/A   Overcast
3:15 AM 33.8 °F 23.2 °F 30.2 °F 87% 29.58 in 6.0 mi North 17.3 mph 31.1 mph N/A   Overcast
3:35 AM 33.8 °F 25.8 °F 30.2 °F 87% 29.59 in 4.0 mi North 10.4 mph 23.0 mph N/A   Overcast
3:55 AM 33.8 °F 23.9 °F 30.2 °F 87% 29.59 in 3.0 mi North 15.0 mph 24.2 mph N/A   Overcast
4:15 AM 33.8 °F 23.2 °F 30.2 °F 87% 29.58 in 1.8 mi North 17.3 mph 28.8 mph N/A   Overcast
4:35 AM 32.0 °F 21.6 °F 28.4 °F 87% 29.56 in 1.8 mi North 15.0 mph 28.8 mph N/A   Overcast
4:55 AM 32.0 °F 20.8 °F 28.4 °F 87% 29.55 in 1.5 mi North 17.3 mph 26.5 mph N/A   Overcast
5:15 AM 32.0 °F 21.2 °F 28.4 °F 87% 29.57 in 1.5 mi NNW 16.1 mph 27.6 mph N/A   Overcast
5:35 AM 32.0 °F 20.1 °F 28.4 °F 87% 29.57 in 1.2 mi North 19.6 mph 26.5 mph N/A   Overcast
5:55 AM 30.2 °F 18.9 °F 28.4 °F 93% 29.58 in 1.2 mi NNW 16.1 mph 26.5 mph N/A   Overcast
6:15 AM 30.2 °F 19.8 °F 28.4 °F 93% 29.59 in 1.0 mi NNW 13.8 mph 23.0 mph N/A   Overcast
6:35 AM 30.2 °F 19.8 °F 28.4 °F 93% 29.61 in 1.0 mi North 13.8 mph 23.0 mph N/A   Overcast
6:55 AM 30.2 °F 18.9 °F 26.6 °F 86% 29.61 in 0.8 mi NNW 16.1 mph 25.3 mph N/A   Overcast
7:15 AM 28.4 °F 15.1 °F 24.8 °F 86% 29.61 in 0.5 mi NNW 20.7 mph 32.2 mph N/A   Overcast
7:35 AM 28.4 °F 17.5 °F 24.8 °F 86% 29.61 in 0.8 mi NNW 13.8 mph 29.9 mph N/A   Overcast
7:55 AM 28.4 °F 14.4 °F 24.8 °F 86% 29.62 in 0.8 mi NNW 23.0 mph 31.1 mph N/A   Overcast
8:15 AM 28.4 °F 15.8 °F 24.8 °F 86% 29.62 in 0.8 mi NNW 18.4 mph 28.8 mph N/A   Overcast
8:35 AM 28.4 °F 16.6 °F 24.8 °F 86% 29.62 in 1.0 mi NNW 16.1 mph 27.6 mph N/A   Overcast
8:55 AM 26.6 °F 13.8 °F 23.0 °F 86% 29.63 in 0.8 mi NNW 17.3 mph 28.8 mph N/A   Overcast
9:15 AM 26.6 °F 13.8 °F 23.0 °F 86% 29.65 in 0.8 mi NNW 17.3 mph 27.6 mph N/A   Overcast
9:35 AM 26.6 °F 15.2 °F 24.8 °F 93% 29.68 in 0.5 mi NNW 13.8 mph 27.6 mph N/A   Overcast
9:55 AM 26.6 °F 14.3 °F 21.2 °F 80% 29.69 in 0.8 mi NNW 16.1 mph 26.5 mph N/A   Overcast
10:15 AM 26.6 °F 13.4 °F 21.2 °F 80% 29.70 in 0.8 mi NNW 18.4 mph 25.3 mph N/A   Overcast
10:35 AM 26.6 °F 13.8 °F 21.2 °F 80% 29.72 in 1.0 mi NNW 17.3 mph 26.5 mph N/A   Overcast
10:55 AM 26.6 °F 13.4 °F 21.2 °F 80% 29.74 in 2.5 mi NNW 18.4 mph 26.5 mph N/A   Overcast
11:15 AM 28.4 °F 15.8 °F 21.2 °F 74% 29.75 in 4.0 mi NNW 18.4 mph 26.5 mph N/A   Overcast
11:35 AM 28.4 °F 15.4 °F 21.2 °F 74% 29.77 in 2.5 mi NNW 19.6 mph 29.9 mph N/A   Overcast
11:55 AM 28.4 °F 15.1 °F 21.2 °F 74% 29.77 in 5.0 mi NNW 20.7 mph 28.8 mph N/A   Overcast
12:15 PM 28.4 °F 18.0 °F 21.2 °F 74% 29.75 in 6.0 mi North 12.7 mph 24.2 mph N/A   Overcast
12:35 PM 28.4 °F 14.7 °F 19.4 °F 69% 29.75 in 7.0 mi North 21.9 mph 34.5 mph N/A   Mostly Cloudy
12:55 PM 28.4 °F 15.8 °F 19.4 °F 69% 29.77 in 3.0 mi NNW 18.4 mph 32.2 mph N/A   Overcast
1:15 PM 26.6 °F 13.4 °F 19.4 °F 74% 29.78 in 4.0 mi NNW 18.4 mph 27.6 mph N/A   Overcast
1:35 PM 26.6 °F 13.1 °F 19.4 °F 74% 29.79 in 5.0 mi NNW 19.6 mph 29.9 mph N/A   Overcast
1:55 PM 26.6 °F 13.1 °F 17.6 °F 69% 29.80 in 7.0 mi NNW 19.6 mph 27.6 mph N/A   Overcast
2:15 PM 26.6 °F 13.8 °F 17.6 °F 69% 29.82 in 10.0 mi NNW 17.3 mph 26.5 mph N/A   Overcast
2:35 PM 26.6 °F 14.3 °F 17.6 °F 69% 29.84 in 9.0 mi NNW 16.1 mph 25.3 mph N/A   Overcast
2:55 PM 26.6 °F 13.8 °F 17.6 °F 69% 29.85 in 7.0 mi NW 17.3 mph 23.0 mph N/A   Overcast
3:15 PM 26.6 °F 14.3 °F 17.6 °F 69% 29.86 in 10.0 mi NNW 16.1 mph 23.0 mph N/A   Overcast
3:35 PM 26.6 °F 13.8 °F 17.6 °F 69% 29.85 in 10.0 mi NNW 17.3 mph 23.0 mph N/A   Overcast
3:55 PM 26.6 °F 15.7 °F 15.8 °F 64% 29.86 in 9.0 mi NNW 12.7 mph 25.3 mph N/A   Overcast
4:15 PM 26.6 °F 13.8 °F 15.8 °F 64% 29.88 in 9.0 mi NNW 17.3 mph 27.6 mph N/A   Overcast
4:35 PM 26.6 °F 15.7 °F 15.8 °F 64% 29.89 in 10.0 mi NNW 12.7 mph 24.2 mph N/A   Overcast
4:55 PM 26.6 °F 16.2 °F 15.8 °F 64% 29.90 in 10.0 mi NNW 11.5 mph 20.7 mph N/A   Overcast
5:15 PM 26.6 °F 14.7 °F 15.8 °F 64% 29.90 in 10.0 mi NNW 15.0 mph 26.5 mph N/A   Overcast
5:35 PM 24.8 °F 16.1 °F 14.0 °F 64% 29.90 in 10.0 mi NNW 8.1 mph 24.2 mph N/A   Overcast
5:55 PM 24.8 °F 14.0 °F 15.8 °F 69% 29.90 in 10.0 mi NNW 11.5 mph 18.4 mph N/A   Overcast
6:15 PM 24.8 °F 13.4 °F 14.0 °F 64% 29.91 in 10.0 mi NNW 12.7 mph 25.3 mph N/A   Overcast
6:35 PM 24.8 °F 16.9 °F 14.0 °F 64% 29.92 in 10.0 mi North 6.9 mph 19.6 mph N/A   Overcast
6:55 PM 24.8 °F 15.3 °F 15.8 °F 69% 29.93 in 10.0 mi North 9.2 mph 18.4 mph N/A   Overcast
7:15 PM 24.8 °F 13.4 °F 14.0 °F 64% 29.93 in 10.0 mi North 12.7 mph 19.6 mph N/A   Overcast
7:35 PM 24.8 °F 15.3 °F 14.0 °F 64% 29.93 in 10.0 mi North 9.2 mph 16.1 mph N/A   Overcast
7:55 PM 24.8 °F 14.0 °F 12.2 °F 59% 29.94 in 10.0 mi North 11.5 mph 19.6 mph N/A   Overcast
8:15 PM 23.0 °F 11.1 °F 14.0 °F 68% 29.95 in 9.0 mi North 12.7 mph 18.4 mph N/A   Overcast
8:35 PM 23.0 °F 11.7 °F 12.2 °F 63% 29.96 in 10.0 mi NNW 11.5 mph 17.3 mph N/A   Mostly Cloudy
8:55 PM 23.0 °F 13.1 °F 14.0 °F 68% 29.96 in 10.0 mi NNW 9.2 mph 18.4 mph N/A   Mostly Cloudy
9:15 PM 23.0 °F 11.7 °F 14.0 °F 68% 29.97 in 10.0 mi NNW 11.5 mph 16.1 mph N/A   Scattered Clouds
9:35 PM 21.2 °F 10.9 °F 14.0 °F 74% 29.97 in 10.0 mi NNW 9.2 mph - N/A   Scattered Clouds
9:55 PM 21.2 °F 11.7 °F 14.0 °F 74% 29.98 in 10.0 mi NNW 8.1 mph - N/A   Partly Cloudy
10:15 PM 21.2 °F 10.9 °F 12.2 °F 68% 29.98 in 10.0 mi NNW 9.2 mph - N/A   Partly Cloudy
10:35 PM 21.2 °F 10.1 °F 12.2 °F 68% 29.97 in 10.0 mi NW 10.4 mph 17.3 mph N/A   Clear
10:55 PM 21.2 °F 10.9 °F 12.2 °F 68% 29.98 in 10.0 mi NW 9.2 mph - N/A   Clear
11:15 PM 21.2 °F 12.6 °F 12.2 °F 68% 29.97 in 10.0 mi NW 6.9 mph - N/A   Clear
11:35 PM 21.2 °F 12.6 °F 10.4 °F 63% 29.96 in 10.0 mi NNW 6.9 mph - N/A   Clear
11:55 PM 21.2 °F 12.6 °F 10.4 °F 63% - 10.0 mi NW 6.9 mph - N/A   Clear